< < Back
Terminal Aerodrome Forecast


Current Version              Previous Versions:   1  2  3  4  5  6  7  8  9  

Terminal Aerodrome Forecast

470
FTUS44 KBMX 242328
TAFMGM
TAF
KMGM 242328Z 2500/2524 25007KT P6SM SCT060
     FM250100 23002KT P6SM SKC
     FM251400 31006KT P6SM FEW050=

Latest METAR

717
SAUS80 KWBC 260100 RRD
MTRMGM
METAR KMGM 260153Z 22003KT 10SM CLR 30/23 A3003 RMK AO2 SLP166
T03000228


USA.gov is the U.S. government's official web portal to all federal, state and local government web resources and services.